Kingman, AZ

1:17 PM MST on November 11, 2019 (GMT -0700)
Kingman

Weather History for KIGM - October, 2019

Change the Weather History Date:

Monday, October 21, 2019

  Actual Average Record
Temperature  
Mean Temperature 57 °F 61 °F  
Max Temperature 77 °F 75 °F 94 °F (1921)
Min Temperature 37 °F 46 °F 29 °F (1949)
Degree Days  
Heating Degree Days 8 5  
Month to date heating degree days 75 60  
Since 1 July heating degree days 83 66  
Cooling Degree Days 0 1  
Month to date cooling degree days 22 59  
Year to date cooling degree days 2098 2085  
Growing Degree Days 7 (Base 50)    
Moisture  
Dew Point 9 °F    
Average Humidity 15    
Maximum Humidity 23    
Minimum Humidity 7    
Precipitation  
Precipitation 0.00 in 0.02 in 0.86 in (1978)
Month to date precipitation 0.00 0.43  
Year to date precipitation 7.83 6.72  
Sea Level Pressure  
Sea Level Pressure 30.05 in    
Wind  
Wind Speed 6 mph (NNE)    
Max Wind Speed 20 mph    
Max Gust Speed 24 mph    
Visibility 10 miles    
Events      
T = Trace of Precipitation, MM = Missing Value Source: NWS Daily Summary

Daily Weather History Graph

Daily Weather History Graph

Search for Another Location

Airport or City:

Astronomy

Oct. 21, 2019 Rise Set
Actual Time 6:46 AM MST 5:53 PM MST
Civil Twilight 6:21 AM MST 6:19 PM MST
Nautical Twilight 5:51 AM MST 6:48 PM MST
Astronomical Twilight 5:22 AM MST 7:18 PM MST
Moon No Moon Rise 2:00 PM MST (10/21)
Length of Visible Light 11h 57m
Length of Day
11h 06m
Waning Gibbous, 47% of the Moon is Illuminated
Oct 21
Waning Gibbous
Oct 27
New
Nov 4
First Quarter
Nov 12
Full
Nov 19
Last Quarter

Hourly Weather History & Observations

Time (MST) Temp. Windchill Dew Point Humidity Pressure Visibility Wind Dir Wind Speed Gust Speed Precip Events Conditions
12:51 AM 45.0 °F - 3.0 °F 18% 29.97 in 10.0 mi Calm Calm - N/A   Clear
1:51 AM 39.0 °F - 1.0 °F 20% 29.99 in 10.0 mi Calm Calm - N/A   Clear
2:51 AM 39.9 °F - 3.0 °F 21% 29.99 in 10.0 mi Calm Calm - N/A   Clear
3:51 AM 41.0 °F - 3.9 °F 21% 29.98 in 10.0 mi Calm Calm - N/A   Clear
4:51 AM 39.0 °F - 3.9 °F 23% 30.00 in 10.0 mi Calm Calm - N/A   Clear
5:51 AM 42.1 °F 40.2 °F 5.0 °F 22% 30.01 in 10.0 mi SSE 3.5 mph - N/A   Clear
6:51 AM 39.0 °F - 5.0 °F 24% 30.04 in 10.0 mi Calm Calm - N/A   Clear
7:51 AM 50.0 °F - 8.1 °F 18% 30.06 in 10.0 mi Calm Calm - N/A   Clear
8:51 AM 57.0 °F - 8.1 °F 14% 30.07 in 10.0 mi North 3.5 mph - N/A   Clear
9:51 AM 64.0 °F - 5.0 °F 10% 30.07 in 10.0 mi Variable 3.5 mph - N/A   Clear
10:40 AM 66.9 °F - 5.0 °F 9% 30.20 in 3.0 mi NNE 3.5 mph - N/A   Haze
10:51 AM 68.0 °F - 5.0 °F 8% 30.06 in 10.0 mi North 5.8 mph - N/A   Clear
11:51 AM 72.0 °F - 8.1 °F 8% 30.06 in 10.0 mi North 4.6 mph - N/A   Clear
12:51 PM 73.0 °F - 16.0 °F 11% 30.04 in 10.0 mi NE 13.8 mph - N/A   Clear
1:51 PM 73.9 °F - 15.1 °F 11% 30.02 in 10.0 mi North 8.1 mph - N/A   Clear
2:51 PM 75.9 °F - 12.9 °F 9% 30.01 in 10.0 mi NNW 12.7 mph - N/A   Clear
3:51 PM 75.9 °F - 7.0 °F 7% 30.01 in 10.0 mi NNW 13.8 mph - N/A   Clear
4:51 PM 73.0 °F - 8.1 °F 8% 30.03 in 10.0 mi North 19.6 mph - N/A   Clear
5:51 PM 68.0 °F - 12.0 °F 11% 30.04 in 10.0 mi North 16.1 mph - N/A   Clear
6:51 PM 64.9 °F - 14.0 °F 14% 30.08 in 10.0 mi North 9.2 mph - N/A   Clear
7:51 PM 60.1 °F - 14.0 °F 16% 30.10 in 10.0 mi East 8.1 mph - N/A   Clear
8:51 PM 57.0 °F - 15.1 °F 19% 30.10 in 10.0 mi East 8.1 mph - N/A   Clear
9:51 PM 54.0 °F - 14.0 °F 21% 30.11 in 10.0 mi East 8.1 mph - N/A   Clear
10:51 PM 51.1 °F - 14.0 °F 23% 30.11 in 10.0 mi Variable 4.6 mph - N/A   Clear
11:51 PM 48.0 °F - 12.9 °F 24% 30.11 in 10.0 mi SSE 4.6 mph - N/A   Clear